Find DemoSat

NORAD ID: 25661 Int'l Des: 1999-014 Owner: BOSL Country: US operational
MEOELLIPTICALHEO_ELLIPTICAL

当前视图

正在加载3D地球...

关于 DemoSat

正在加载描述...

即将过境

Passes for default location (London). Set your location on the main map for personalized predictions.

高度历史

Loading altitude history...

两行轨道根数

1 25661U 99014A 26150.46751547 -.00000126 00000-0 53926-3 0 9994
2 25661 1.6368 348.3999 7171995 296.1866 8.4009 2.23256180221711
Epoch: May 30, 2026 • Age: 29 hours

当前状态

高度 27833.3 km
速度 2.68 km/s
星下点 0.99°N, 8.04°W
发射日期 Mar 28, 1999
运行时间 27.1 years
类型 other

技术详情

分类 Payload
质量 4700.00 kg
干质量 4700.00 kg
总质量 4700.00 kg
长度 5.00 m
直径 5.00 m
跨度 5.00 m
形状 Irr
制造商 BOKT
平台类型 HS-702 Model
阶段状态 In Orbit
所有者/国家 BOSL/US

Most Searched